Hourly Data Report for February 05, 2015

All times are specified in Local Standard Time (LST). Add 1 hour to adjust for Daylight Saving Time where and when it is observed.

GERALDTON A
ONTARIO

49°46'58.090" N
86°55'50.050" W
348.40 m
6042716
71834
YGQ

Download Data

Hourly Data (February 2015)
Hourly Data Report for February 5, 2015
Temp Definition
°C
Dew Point Temp Definition
°C
Rel Hum Definition
%
Wind Dir Definition
10's deg

Wind Spd Definition
km/h
Visibility Definition
km
Stn Press Definition
kPa
Hmdx Definition


Wind Chill Definition


Weather Definition


TIME
00:00 -26.7 -29.9 74 26 9 24.1 97.83   -35 Clear
01:00 -27.8 -30.7 76 26 9 24.1 97.86   -36 Clear
02:00 -28.8 -31.5 77 26 11 24.1 97.87   -38 Clear
03:00 -29.7 -32.4 77 24 11 24.1 97.87   -39 Clear
04:00 -30.3 -33.0 77 24 11 24.1 97.84   -40 Clear
05:00 -30.6 -33.4 76 24 9 24.1 97.82   -39 Clear
06:00 -32.3 -35.2 75 21 9 24.1 97.80   -41 Clear
07:00 -31.5 -34.4 75 21 7 24.1 97.79   -39 Mainly Clear
08:00 -31.1 -34.0 76 20 6 24.1 97.70   -38 Mainly Clear
09:00 -29.4 -32.4 75 20 7 24.1 97.63   -37 Mainly Clear
10:00 -26.4 -29.9 72 20 15 24.1 97.54   -37 Mainly Clear
11:00 -23.1 -27.1 70 19 19 24.1 97.43   -34 Mainly Clear
12:00 -19.4 -25.1 61 19 20 24.1 97.20   -30 Mainly Clear
13:00 -15.6 -20.6 65 19 24 24.1 96.96   -26 Cloudy
14:00 -13.0 -17.0 72 19 17 4.8 96.73   -21 Snow
15:00 -11.9 -15.0 78 20 22 4.8 96.60   -21 Snow
16:00 -11.4 -14.7 77 21 24 3.2 96.48   -20 Snow
17:00 -11.8 -15.3 75 23 24 3.2 96.44   -21 Snow
18:00 -12.3 -14.9 81 24 20 2.4 96.44   -21 Snow
19:00 -12.7 -15.3 81 26 17 2.4 96.48   -21 Snow
20:00 -13.0 -15.8 79 26 17 4.8 96.51   -21 Snow
21:00 -13.1 -16.2 77 27 19 4.8 96.55   -22 Snow
22:00 -13.5 -17.2 74 29 15 12.9 96.59   -21 Snow
23:00 -14.3 -18.0 73 28 19 19.3 96.62   -23 Snow

Notes on Data Quality.

Legend

  • E = Estimated
  • M = Missing
  • NA = Not Available
  • ‡ = Partner data that is not subject to review by the National Climate Archives
Date modified: